Dewpoint
32 29 28 29 28 27 26 26 25 26 27 26 24 24 23 23 25 24 24 22 21 20 22 27 36 53 56 57 58 61 62 61 59 60 60 59 59 60 60 58 56 56 57 58
28 28 30 30 28 27 26 25 25 26 28 26 24 21 22 28 29 30 30 31 33 33 34 35 35 39 53 55 58 59 60 61 59 60 60 60 59 59 59 58 56 56 56 58
29 30 30 28 29 27 27 26 26 26 27 25 24 19 20 23 28 30 31 32 33 34 34 36 37 38 40 46 54 58 60 60 59 59 60 59 59 57 57 56 56 55 56 56
30 32 29 28 29 30 25 29 28 26 24 19 25 14 19 23 26 30 31 32 32 34 35 36 36 38 42 43 46 52 58 59 59 59 58 57 56 56 56 56 56 56 55 56
27 30 30 27 29 31 27 30 29 28 25 23 20 18 18 27 26 29 31 31 31 32 33 35 37 38 39 40 42 44 47 57 59 59 57 56 55 56 57 57 56 55 55 55
29 32 33 31 32 32 31 28 22 24 20 14 18 19 18 26 28 29 30 30 31 31 32 33 35 36 38 39 39 41 44 46 57 59 58 56 56 56 56 57 57 56 56 55
23 27 32 33 29 30 29 20 12 13 13 14 21 19 24 29 31 30 30 30 31 31 31 32 33 34 35 37 38 39 41 43 46 56 58 58 57 56 56 56 56 56 56 55
20 17 28 32 31 30 28 28 18 9 13 15 20 16 24 29 31 30 30 30 30 31 31 30 32 34 33 34 36 38 40 42 45 47 54 58 58 58 57 57 57 57 57 57
21 19 24 33 33 32 27 25 31 22 19 17 17 23 28 28 28 28 29 29 29 29 29 29 31 31 32 34 35 36 39 41 44 46 49 57 58 58 58 57 57 57 57 58
26 20 21 28 31 31 30 32 22 21 14 10 14 16 21 25 26 27 28 29 29 31 32 31 32 31 31 32 34 36 38 40 43 45 49 53 57 58 58 57 58 57 57 57
28 24 20 23 27 25 28 25 26 28 23 17 14 16 29 27 27 29 28 30 30 30 31 32 32 33 32 32 34 36 37 38 41 44 48 54 56 57 58 58 58 58 58 58
30 25 20 20 26 30 31 26 26 20 19 22 20 18 30 29 30 29 30 31 32 32 32 33 32 32 32 31 33 33 34 36 39 42 48 54 53 56 57 58 58 58 58 59
29 23 18 16 24 26 27 28 28 28 27 19 19 17 30 28 28 30 29 30 31 31 32 32 32 31 31 31 31 32 33 34 36 39 41 42 44 45 45 46 46 47 49 49
29 25 22 17 18 26 24 26 28 28 20 19 20 21 26 27 27 29 30 30 29 30 30 30 31 30 31 31 31 31 32 33 35 36 38 38 38 39 41 42 43 44 45 45
28 18 23 24 24 25 25 25 25 26 25 21 18 22 25 27 29 30 30 29 29 29 29 29 29 29 30 30 30 31 30 32 34 34 35 35 36 36 37 37 38 39 40 41
26 16 22 19 25 26 24 25 25 27 26 25 25 24 27 29 31 31 26 28 28 29 28 29 29 29 29 29 29 29 30 30 31 32 33 33 33 34 34 35 35 36 36 36
20 22 18 12 19 20 19 22 25 26 26 25 23 24 29 29 30 31 26 27 28 28 28 28 29 28 28 28 29 28 28 29 29 29 30 31 31 32 32 33 33 33 33 34
22 22 22 17 18 9 17 29 27 26 26 27 28 28 29 28 32 31 27 26 27 26 27 26 26 25 26 27 28 28 28 28 28 28 29 30 30 30 31 31 31 31 31 31
24 22 18 16 16 14 21 28 28 26 23 28 28 29 29 31 34 32 30 27 26 25 26 26 26 25 24 24 25 27 27 27 28 27 28 29 30 30 30 29 29 29 28 28
25 25 19 17 11 -3 18 29 31 29 21 28 29 29 29 32 22 19 28 27 26 25 26 26 25 24 23 23 24 24 24 24 25 26 27 28 29 28 28 28 28 28 28 27
20 20 17 15 13 13 17 31 30 20 15 29 30 30 30 28 23 22 26 26 26 25 27 25 24 23 22 22 23 23 23 23 24 25 26 27 28 28 28 28 27 27 26 25
13 13 14 13 12 -4 28 30 24 23 30 30 31 30 30 28 24 26 25 25 25 24 26 25 24 22 20 20 21 22 21 21 22 24 25 26 27 28 28 27 26 25 25 24
-0 8 6 11 2 15 31 28 31 29 30 30 31 31 30 28 25 26 25 25 24 23 25 24 23 21 19 18 18 20 20 20 22 23 24 26 25 26 27 25 24 24 24 23
12 16 15 14 9 17 23 31 31 31 30 31 31 30 30 28 26 25 26 25 24 23 22 23 24 22 20 17 17 16 17 17 20 22 23 25 25 24 25 25 24 23 23 23
9 17 11 13 12 14 15 22 30 31 31 30 30 30 29 29 27 25 26 25 24 23 20 23 25 22 19 16 17 15 15 15 20 22 23 24 24 24 23 22 24 23 23 23
17 8 1 -8 3 -1 -6 3 20 30 30 30 29 29 29 29 28 26 25 25 24 23 19 21 23 20 19 16 16 15 12 15 20 22 23 23 23 23 22 22 20 21 22 21
Wind_Speed
8 15 12 7 5 2 3 4 6 3 7 9 9 15 17 21 16 12 9 10 14 16 17 18 17 14 16 16 15 17 21 21 19 19 20 18 21 18 16 15 18 22 20 19
7 13 6 4 2 4 4 5 8 4 12 5 10 7 10 21 24 26 25 23 22 23 25 26 25 23 11 14 19 20 19 18 21 18 19 14 20 17 19 18 18 17 19 21
8 6 7 5 11 10 6 6 7 6 13 1 13 3 10 6 18 23 24 20 22 22 24 26 27 23 21 22 16 14 17 21 19 17 12 6 8 6 10 12 15 16 18 21
3 8 6 6 4 7 2 3 5 7 8 2 6 5 6 12 15 22 22 23 23 23 23 23 26 25 23 22 21 21 13 13 20 19 17 20 19 19 17 18 18 19 21 22
3 8 9 7 6 3 3 11 6 3 1 2 4 2 2 10 18 29 24 20 19 18 18 20 22 22 22 21 21 20 21 11 11 19 23 21 18 16 11 10 15 15 17 21
3 5 3 5 6 3 8 5 5 4 4 3 3 1 4 8 10 22 25 24 24 22 20 19 19 20 23 22 21 21 19 19 10 14 19 24 24 18 14 16 17 17 16 18
8 5 6 5 6 4 11 7 3 3 5 2 2 2 1 6 6 12 22 25 24 24 24 23 23 23 22 24 25 22 21 21 17 12 16 18 23 21 20 20 20 19 18 16
7 2 8 12 3 4 6 5 3 1 3 5 5 1 4 3 1 11 14 21 25 26 24 24 24 22 20 21 22 23 22 22 18 16 14 17 19 19 22 20 20 20 21 21
6 4 5 4 5 2 3 6 3 2 1 1 3 2 4 9 12 18 21 21 23 23 25 24 22 21 22 19 19 21 21 21 19 18 17 17 18 19 19 22 19 19 19 18
2 5 1 5 3 3 4 1 2 3 3 3 3 2 5 18 22 21 22 20 20 20 20 21 21 21 19 19 18 18 18 18 20 20 20 18 20 19 20 18 18 18 19 18
2 3 3 2 4 4 4 4 3 2 2 1 5 2 5 8 12 15 16 16 18 20 21 21 22 21 19 18 18 17 16 18 18 17 21 17 17 17 16 15 14 15 15 15
2 2 5 4 4 4 1 2 2 3 4 3 2 4 5 5 7 8 11 14 16 18 21 22 22 21 19 19 19 19 19 19 18 16 15 2 5 2 4 8 10 12 15 16
5 2 6 3 1 2 1 1 2 1 1 5 2 4 1 3 4 6 11 15 18 18 21 20 19 19 18 19 20 22 21 21 19 16 14 16 19 17 17 15 14 14 12 18
4 3 6 7 3 2 6 3 3 3 3 4 8 6 3 3 5 9 11 12 15 15 17 19 21 20 19 20 23 24 22 21 20 17 16 19 19 21 19 18 15 14 15 14
2 3 4 12 17 9 10 11 9 10 6 7 2 6 6 8 6 8 9 10 12 12 15 18 20 21 21 22 23 22 24 25 20 18 19 19 18 20 20 20 17 14 17 18
1 3 4 7 4 7 11 10 9 9 7 13 13 13 13 6 6 10 9 8 9 11 13 15 17 20 20 21 21 22 23 22 20 19 19 19 19 19 19 19 17 17 18 18
2 1 3 5 5 9 7 9 14 6 10 9 11 9 9 7 10 10 8 6 8 8 10 11 13 15 18 18 17 20 19 18 19 19 18 19 19 18 20 18 17 19 20 14
4 2 1 7 9 3 2 3 6 12 9 19 9 8 12 13 7 10 10 7 6 6 7 8 9 12 15 18 19 18 17 16 16 19 19 18 19 16 16 18 18 18 15 15
4 4 3 3 5 11 3 7 9 10 6 24 21 14 12 8 6 15 14 8 1 2 4 6 8 8 11 14 15 16 18 17 17 19 17 19 15 14 17 18 16 16 12 14
6 4 2 3 3 4 2 6 8 6 8 18 24 21 18 9 5 5 10 7 4 3 1 4 8 9 13 15 14 13 13 15 16 17 16 16 14 16 17 15 17 13 13 14
6 5 11 7 7 13 12 10 9 2 2 16 24 19 18 14 10 2 11 6 5 4 3 3 5 8 10 12 11 11 11 13 12 12 12 12 13 13 13 14 14 13 14 13
15 14 9 6 6 8 12 11 9 5 2 16 19 18 21 17 6 8 9 9 8 6 5 3 3 5 7 9 9 9 11 12 11 10 11 13 12 12 12 14 15 15 15 17
9 12 7 16 10 4 25 4 13 7 6 11 20 16 16 14 12 13 11 11 10 9 7 4 4 1 5 8 8 7 9 10 9 9 10 11 12 13 13 15 14 15 16 16
9 9 6 3 6 26 17 24 9 9 9 14 18 18 18 15 14 14 12 12 11 11 10 8 5 2 1 2 4 4 8 9 7 9 9 9 11 15 14 12 13 14 16 16
8 17 10 11 22 13 20 25 24 20 13 11 13 18 20 17 14 16 15 14 13 12 10 9 8 7 6 3 4 5 7 8 5 6 6 7 8 9 12 12 12 12 11 12
14 14 15 18 15 8 9 17 23 25 27 22 20 18 18 22 20 18 17 17 17 16 14 12 11 11 10 7 5 4 5 6 5 5 6 7 8 9 11 11 10 9 7 9
Wind_Direction
15 60 29 1 32 67 7 8 331 296 358 345 339 327 338 360 18 5 349 3 10 3 345 359 357 266 219 216 217 209 191 194 189 193 185 187 197 197 200 195 186 188 188 184
32 43 11 358 3 19 18 7 3 306 343 347 346 8 37 48 45 49 45 34 20 15 8 6 16 13 321 261 224 217 203 191 194 195 198 196 193 203 200 189 194 191 185 180
68 338 323 339 41 18 50 48 358 327 326 8 351 86 49 51 39 37 34 25 24 16 3 358 1 0 8 11 324 267 216 196 195 198 194 207 188 140 180 204 201 194 185 187
12 330 9 10 47 10 26 323 323 323 358 4 12 143 31 3 22 27 21 16 6 3 359 356 352 353 358 356 355 356 304 240 191 187 190 197 198 203 203 200 204 196 191 193
349 346 350 9 347 351 342 319 317 284 224 358 16 70 331 10 4 355 357 1 358 357 355 350 345 344 341 349 348 348 349 313 253 191 192 198 209 216 198 187 188 201 203 201
343 297 311 309 317 51 327 6 51 46 44 83 338 54 351 13 348 342 343 352 351 350 351 347 340 340 340 343 346 345 346 337 296 233 207 197 205 205 195 194 199 206 207 215
346 343 321 328 326 21 6 33 26 37 35 141 72 11 12 356 9 353 339 342 347 347 346 344 342 343 337 337 338 337 336 326 329 301 230 219 214 214 206 199 202 202 207 212
27 322 4 339 12 339 16 23 67 78 344 307 321 277 176 60 13 356 356 347 344 343 343 341 336 332 333 329 329 326 325 317 319 312 288 225 221 208 209 210 211 210 210 212
20 277 326 347 325 3 360 39 326 99 47 287 281 72 208 1 7 1 358 356 348 343 343 341 336 334 329 329 326 322 317 313 309 304 294 257 228 219 221 218 216 216 215 216
119 305 230 301 311 5 72 331 28 30 7 320 304 314 304 346 344 348 356 352 342 342 342 343 341 338 334 329 329 322 316 312 309 301 292 263 236 226 226 234 225 222 222 216
86 115 309 326 21 2 15 42 8 285 153 312 307 290 353 339 336 345 347 341 343 345 348 347 345 340 338 338 340 335 334 331 326 317 301 252 235 231 223 220 224 217 225 211
91 130 278 269 276 286 349 136 74 36 321 287 235 261 12 352 347 338 337 338 343 348 349 345 341 340 345 349 351 351 349 342 337 336 344 79 92 29 220 222 238 245 222 226
158 95 323 305 276 320 221 181 140 162 241 242 259 277 45 359 350 342 336 338 340 343 344 341 343 347 351 358 359 0 356 351 348 2 21 48 63 61 52 49 41 35 39 48
117 167 204 247 280 347 279 216 229 233 217 289 256 284 257 305 314 327 324 331 335 341 337 343 351 350 353 6 7 4 355 357 358 15 33 46 50 56 51 46 36 53 46 48
82 263 215 266 277 277 265 265 246 223 222 232 249 247 259 231 253 285 303 325 341 338 347 356 349 350 356 6 4 1 4 359 356 18 36 37 46 53 52 46 37 35 46 42
87 281 345 294 239 263 280 265 240 230 246 249 262 257 228 213 252 286 293 310 323 332 358 353 350 354 358 3 360 3 4 358 359 19 29 32 37 50 50 49 36 41 43 44
180 279 5 271 306 311 279 234 201 204 217 219 222 238 167 213 251 271 281 301 324 342 0 1 353 353 354 357 357 4 360 355 8 14 22 33 32 37 48 45 43 40 39 35
159 145 202 282 331 275 206 186 205 205 226 215 234 242 191 208 234 268 246 262 309 342 351 356 3 1 357 356 2 355 1 6 16 20 20 24 37 32 46 53 43 43 40 39
182 156 258 276 290 299 248 206 182 189 267 211 217 225 213 225 277 276 234 225 244 324 3 1 7 16 11 7 357 356 4 4 19 19 18 21 21 36 45 53 54 42 37 40
128 104 194 190 266 257 211 185 176 158 282 196 197 207 201 178 229 256 178 177 166 161 70 24 1 17 28 7 359 11 8 9 15 5 8 11 20 39 42 42 47 32 35 39
162 202 227 216 244 279 237 161 154 151 249 180 190 195 182 196 213 115 135 144 168 166 123 82 41 33 18 5 8 22 13 19 355 7 18 22 16 28 32 39 41 31 35 35
179 173 196 173 211 279 162 130 192 210 163 184 187 192 192 202 171 157 155 168 181 182 160 120 73 29 21 21 24 28 24 348 358 26 38 30 19 23 29 41 39 31 28 31
216 198 189 199 222 243 191 208 209 185 167 185 188 193 196 198 201 183 183 185 189 191 175 155 153 74 21 23 21 20 357 349 3 38 46 31 30 33 32 43 39 36 31 33
226 191 238 253 253 238 228 239 261 229 216 192 191 189 187 200 197 194 187 191 191 192 189 173 177 205 259 352 344 341 338 341 10 47 40 41 45 39 38 46 46 44 34 30
198 156 203 252 270 265 266 237 230 227 226 205 189 192 200 199 200 195 195 196 198 191 183 183 203 216 232 266 302 337 345 356 34 51 49 48 51 45 41 45 36 48 39 36
188 188 193 234 215 202 245 229 215 209 213 210 198 199 206 199 202 194 199 197 188 190 182 187 198 210 225 237 263 303 354 27 56 53 48 40 41 38 33 29 23 18 33 40